Flag for Germany Weather past 2 weeks in Koblenz, Rhineland-Palatinate, Germany

Now
50 °F

Mostly cloudy.


Feels Like: 46 °F
Forecast: 49 / 63 °F
Wind: 9 mph from West

Location: Buechel

Current Time: May 29, 2015 at 11:21:31 AM

Latest Report: May 29, 2015 at 10:20 AM


Visibility: N/A

Pressure: 29.92 "Hg

Humidity: 71%

Dew point: 41 °F

Location of KoblenzLocation

Historic Weather in Koblenz — Graph

°F

Koblenz temperature yesterday

Maximum temperature yesterday: 61 °F (at 12:20 PM)
Minimum temperature yesterday: 45 °F (at 1:20 AM)
Average temperature yesterday: 53 °F

Past Weeks' High & Low Weather Summary

 TemperatureHumidityPressure
High64 °F (May 18, 4:20 PM)100% (May 15, 7:20 AM)30.33 "Hg (May 15, 7:20 AM)
Low37 °F (May 21, 5:20 AM)36% (May 21, 3:20 PM)29.71 "Hg (May 18, 7:20 PM)
Average52 °F68%30.07 "Hg
* Reported May 14 9:20 AM — May 29 9:20 AM, Koblenz, Weather by CustomWeather, © 2015

Note: Actual official high and low records may vary slightly from our data, if they occured in-between our weather recording intervals... More about our weather records

Advertising

Koblenz weather history for previous 24 hours

 ConditionsComfort  
Time TempWeatherWind HumidityBarometerVisibility
9:20 AM
Fri, May 29
50 °FMore clouds than sun.9 mph67%29.92 "HgN/A
7:20 AM45 °FPartly sunny.6 mph81%29.92 "HgN/A
6:20 AM43 °FPassing clouds.5 mph87%29.92 "HgN/A
5:20 AM45 °FPassing clouds.5 mph81%29.92 "HgN/A
4:20 AM45 °FPassing clouds.5 mph81%29.95 "HgN/A
3:20 AM46 °FCool.5 mph76%29.95 "HgN/A
2:20 AM48 °FCool.6 mph76%29.98 "HgN/A
1:20 AM50 °FCool.8 mph67%29.98 "HgN/A
12:20 AM52 °FCool.8 mph72%29.98 "HgN/A
11:20 PM
Thu, May 28
52 °FCool.5 mph72%29.98 "HgN/A
10:20 PM52 °FCool.5 mph72%29.98 "HgN/A
9:20 PM54 °FBroken clouds.7 mph67%29.98 "HgN/A
8:20 PM55 °FScattered clouds.12 mph59%29.98 "HgN/A
7:20 PM59 °FBroken clouds.12 mph59%29.95 "HgN/A
6:20 PM61 °FBroken clouds.13 mph48%29.95 "HgN/A
5:20 PM61 °FBroken clouds.10 mph59%29.95 "HgN/A
4:20 PM59 °FPartly sunny.14 mph59%29.95 "HgN/A
3:20 PM59 °FPartly sunny.14 mph55%29.98 "HgN/A
2:20 PM59 °FPartly sunny.12 mph55%29.98 "HgN/A
1:20 PM61 °FPartly sunny.15 mph55%29.98 "HgN/A
12:20 PM61 °FScattered clouds.14 mph55%29.98 "HgN/A
11:20 AM57 °FScattered clouds.13 mph63%30.01 "HgN/A
Weather by CustomWeather, © 2015

See weather overviewHow to use our weather pages